Location: Moydans
(44.3997°N, 5.5038°E)
Time: 02:53:57
(UTC+02:00)

Envisat - Pass Details

Date: 06 October 2021
Orbit: 764 x 766 km, 98.2° (Epoch: 17 October)

Event Time Altitude Azimuth Distance (km) Brightness Sun altitude
Rises 05:48:18 0° 26° (NNE) 3,238 6.8 -21.0°
Reaches altitude 10° 05:51:04 10° 40° (NE) 2,307 6.2 -20.5°
Maximum altitude 05:55:07 23° 93° (E) 1,568 5.4 -19.8°
Drops below altitude 10° 05:59:07 10° 146° (SE) 2,293 5.7 -19.1°
Sets 06:01:50 0° 160° (SSE) 3,214 6.3 -18.6°
